星链-4445 (STARLINK-4445 )

导读

STARLINK-4445是美国太空探索技术公司星链星座的卫星,于2022年8月12日发射升空。星链旨在构建全球卫星互联网通信系统,该卫星加入星座后,提升了星座全球覆盖密度,为地面提供低延迟宽带网络服务,助力偏远地区网络接入,也承载着商业航天通信服务拓展的战略意义。

Basic Information
目录编号:
53474
目录名称:
STARLINK-4445
国际标识:
2022-099K
轨道中心:
EARTH
卫星名称:
星链-4445
卫星全名:
星链-4445 (STARLINK-4445 )
卫星状态:
在轨 (已飞行1405 天)
发射日期:
2022-08-12 UTC
国别 :
美国 (US)
星等 :
--
Orbit Information
数据来源 国际轨道数据 AOE轨道数据
星历时间 2026-06-17T05:30:12+0800
14小时前
查看轨道信息
2026-06-12T04:00:00+0800
5天前
查看轨道信息
半长轴 6927.622km 6927.639km
偏心率 0.0001415 0.0002135
轨道倾角 97.356° 97.375°
近地点辐角 108.999° 147.505°
升交点赤经 286.939° 282.109°
平近点角 251.139° 148.781°
近地点 548.504km 548.022km
远地点 550.466km 550.982km
周期 95.639分钟 95.640分钟
每日圈数 15.056588 15.056532
Detailed Information
固有亮度:
5
最大亮度:
2.5
卫星平台:
Starlink v1.5
覆盖范围:
全球
运营商:
太空探索技术公司
运营商所在国:
美国
制造商(研发单位):
太空探索技术公司
制造商所在国:
美国
使用方式:
暂无
Satellite Introduction
星链(Starlink)计划是由太空探索技术公司(SpaceX)提出的一个巨型低轨卫星互联网星座项目,计划在2019年至2024年间在太空搭建由约1.2万颗卫星组成的“星链”网络,其中1584颗将部署在地球上空550千米处的近地轨道,并从2020年开始工作。该卫星仍在工作。
2D Orbit Map
3D Orbit Map
Orbit Altitude Analysis Chart
Orbit Inclination Analysis Chart
Orbit Comprehensive Analysis Chart
View Comprehensive Chart